Location: Frankfurt am Main
(50.1109°N, 8.6821°E)
Time: 03:12:16
(UTC+01:00)

ISS - Visible Passes

Search period start: 18 January 2019 00:00
Search period end: 28 January 2019 00:00
Orbit: 404 x 407 km, 51.6° (Epoch: 18 January)

Date Brightness Start Highest point End Pass type
(mag) Time Alt. Az. Time Alt. Az. Time Alt. Az.
22 Jan -1.1 19:27:14 10° SSW 19:27:42 13° SSW 19:27:42 13° SSW visible
23 Jan -1.7 18:36:18 10° S 18:38:08 14° SE 18:38:11 14° SE visible
24 Jan -2.4 19:19:10 10° SW 19:21:17 31° SSW 19:21:17 31° SSW visible
25 Jan -2.5 18:27:38 10° SSW 18:30:26 26° SE 18:31:37 21° ESE visible
25 Jan -0.9 20:03:23 10° WSW 20:04:18 17° WSW 20:04:18 17° WSW visible
26 Jan -3.7 19:11:28 10° WSW 19:14:34 67° S 19:14:34 67° S visible
27 Jan -3.3 18:19:38 10° SW 18:22:49 47° SSE 18:24:46 20° E visible
27 Jan -1.4 19:55:59 10° W 19:57:27 24° W 19:57:27 24° W visible
